User: anonymous
Location: Columbia
(38.9520°N, 92.3340°W)
Time: 23:42:45
(UTC-05:00)
Language:

Iridium 22 - Orbit

View from above orbital plane
View from above orbital plane
View from above satellite
View from above satellite

Ground track
Ground track

The orbit data is extracted from the following two-line orbital elements,

1 24907U 97043E   14107.86125097  .00000036  00000-0  59218-5 0  7803
2 24907 086.4016 019.3250 0002124 101.2537 325.7645 14.34211729872099
Epoch (UTC): 17 April 2014 20:40:12
Eccentricity: 0.0002124
inclination: 86.4016°
perigee height: 776 km
apogee height: 779 km
right ascension of ascending node: 19.3250°
argument of perigee: 101.2537°
revolutions per day: 14.34211729
mean anomaly at epoch: 325.7645°
orbit number at epoch: 87209

The dashed part of the orbit path shows where the satellite is in the earth's shadow,  

DLR